User: anonymous   Login
Location: Caltech
(34.1382°N, 118.1253°W)
Time: 20:35:52
(UTC-08:00)
Language:

ASTRO E2 - Orbit

View from above orbital plane
View from above orbital plane
View from above satellite
View from above satellite

Ground track
Ground track

The orbit data is extracted from the following two-line orbital elements,

1 28773U 05025A   16336.87471276 +.00001216 +00000-0 +58453-4 0  9999
2 28773 031.3819 135.4899 0004712 169.6566 190.4178 15.15326097627415
Epoch (UTC): 01 December 2016 20:59:35
Eccentricity: 0.0004712
inclination: 31.3819°
perigee height: 517 km
apogee height: 523 km
right ascension of ascending node: 135.4899°
argument of perigee: 169.6566°
revolutions per day: 15.15326097
mean anomaly at epoch: 190.4178°
orbit number at epoch: 62741

The dashed part of the orbit path shows where the satellite is in the earth's shadow,  

DLR